When you browse on this site, cookies collect data to enhance your experience and personalize the content and advertising you see.
Visit our Privacy Policy to learn more. By continuing to use the site, you agree to this use of cookies and data.
  • In Belgien
  • Länderverzeichnis
  • Für 7 Tage
  • Wassertemperatur
  • Wetterkarte
  • Widgets
  • user-avatar
    Anmelden

    Stündliche Wetter Kanje

    Heute, 6 Juni, Samstag

    Zeit Temperatur Niederschläge Wind Luftdruck Luftfeuchtigkeit
    00:00 +10°C° 0 mm 1 m/S 655 mmHg 58%
    01:00 +8°C° 0 mm 0 m/S 654 mmHg 61%
    02:00 +8°C° 0 mm 0 m/S 654 mmHg 64%
    03:00 +7°C° 0 mm 0 m/S 654 mmHg 63%
    04:00 +8°C° 0 mm 1 m/S 654 mmHg 63%
    05:00 +8°C° 0 mm 1 m/S 654 mmHg 63%
    06:00 +9°C° 0 mm 1 m/S 655 mmHg 57%
    07:00 +10°C° 0 mm 1 m/S 656 mmHg 52%
    08:00 +12°C° 0 mm 1 m/S 656 mmHg 46%
    09:00 +14°C° 0 mm 2 m/S 657 mmHg 40%
    10:00 +17°C° 0 mm 2 m/S 657 mmHg 34%
    11:00 +19°C° 0 mm 2 m/S 658 mmHg 27%
    12:00 +20°C° 0 mm 2 m/S 658 mmHg 24%
    13:00 +21°C° 0 mm 3 m/S 657 mmHg 21%
    14:00 +22°C° 0 mm 3 m/S 657 mmHg 18%
    15:00 +21°C° 0 mm 3 m/S 656 mmHg 19%
    16:00 +20°C° 0 mm 2 m/S 656 mmHg 20%
    17:00 +19°C° 0 mm 2 m/S 655 mmHg 21%
    18:00 +17°C° 0 mm 2 m/S 655 mmHg 26%
    19:00 +15°C° 0 mm 2 m/S 655 mmHg 31%
    20:00 +13°C° 0 mm 2 m/S 655 mmHg 36%
    21:00 +12°C° 0 mm 2 m/S 655 mmHg 39%
    22:00 +12°C° 0 mm 1 m/S 655 mmHg 42%
    23:00 +11°C° 0 mm 1 m/S 655 mmHg 45%

    Morgen, 7 Juni, Sonntag

    Zeit Temperatur Niederschläge Wind Luftdruck Luftfeuchtigkeit
    00:00 +10°C° 0 mm 1 m/S 655 mmHg 48%
    01:00 +10°C° 0 mm 1 m/S 654 mmHg 52%
    02:00 +9°C° 0 mm 1 m/S 654 mmHg 56%
    03:00 +9°C° 0 mm 1 m/S 654 mmHg 56%
    04:00 +9°C° 0 mm 1 m/S 654 mmHg 56%
    05:00 +7°C° 0 mm 2 m/S 654 mmHg 56%
    06:00 +8°C° 0 mm 2 m/S 655 mmHg 54%
    07:00 +10°C° 0 mm 1 m/S 655 mmHg 52%
    08:00 +10°C° 0 mm 1 m/S 656 mmHg 51%
    09:00 +13°C° 0 mm 2 m/S 656 mmHg 44%
    10:00 +16°C° 0 mm 2 m/S 657 mmHg 38%
    11:00 +18°C° 0 mm 2 m/S 658 mmHg 31%
    12:00 +19°C° 0 mm 2 m/S 657 mmHg 28%
    13:00 +20°C° 0 mm 2 m/S 657 mmHg 25%
    14:00 +21°C° 0 mm 2 m/S 656 mmHg 21%
    15:00 +21°C° 0 mm 2 m/S 656 mmHg 23%
    16:00 +20°C° 0 mm 2 m/S 655 mmHg 24%
    17:00 +19°C° 0 mm 2 m/S 655 mmHg 25%
    18:00 +17°C° 0 mm 2 m/S 655 mmHg 30%
    19:00 +15°C° 0 mm 2 m/S 654 mmHg 36%
    20:00 +13°C° 0 mm 2 m/S 654 mmHg 41%
    21:00 +12°C° 0 mm 2 m/S 654 mmHg 43%
    22:00 +12°C° 0 mm 2 m/S 654 mmHg 46%
    23:00 +11°C° 0 mm 1 m/S 654 mmHg 48%

    übermorgen, 8 Juni, Montag

    Zeit Temperatur Niederschläge Wind Luftdruck Luftfeuchtigkeit
    00:00 +11°C° 0 mm 1 m/S 654 mmHg 52%
    01:00 +10°C° 0 mm 1 m/S 653 mmHg 55%
    02:00 +10°C° 0 mm 1 m/S 653 mmHg 58%
    03:00 +9°C° 0 mm 1 m/S 653 mmHg 60%
    04:00 +9°C° 0 mm 1 m/S 653 mmHg 62%
    05:00 +8°C° 0 mm 1 m/S 653 mmHg 64%
    06:00 +9°C° 0 mm 1 m/S 653 mmHg 60%
    07:00 +10°C° 0 mm 1 m/S 654 mmHg 56%
    08:00 +10°C° 0 mm 2 m/S 654 mmHg 52%
    09:00 +14°C° 0 mm 2 m/S 655 mmHg 45%
    10:00 +16°C° 0 mm 2 m/S 656 mmHg 38%
    11:00 +19°C° 0 mm 3 m/S 657 mmHg 31%
    12:00 +20°C° 0 mm 3 m/S 656 mmHg 28%
    13:00 +21°C° 0 mm 3 m/S 655 mmHg 25%
    14:00 +22°C° 0 mm 3 m/S 655 mmHg 21%
    15:00 +21°C° 0 mm 2 m/S 655 mmHg 22%
    16:00 +20°C° 0 mm 2 m/S 654 mmHg 23%
    17:00 +20°C° 0 mm 2 m/S 654 mmHg 24%
    18:00 +17°C° 0 mm 2 m/S 654 mmHg 28%
    19:00 +15°C° 0 mm 2 m/S 653 mmHg 32%
    20:00 +13°C° 0 mm 2 m/S 653 mmHg 36%
    21:00 +13°C° 0 mm 2 m/S 653 mmHg 37%
    22:00 +12°C° 0 mm 2 m/S 653 mmHg 38%
    23:00 +12°C° 0 mm 2 m/S 653 mmHg 40%

    9 Juni, Dienstag

    Zeit Temperatur Niederschläge Wind Luftdruck Luftfeuchtigkeit
    00:00 +10°C° 0 mm 2 m/S 653 mmHg 41%
    01:00 +10°C° 0 mm 2 m/S 653 mmHg 42%
    02:00 +10°C° 0 mm 2 m/S 653 mmHg 43%
    03:00 +9°C° 0 mm 2 m/S 652 mmHg 44%
    04:00 +9°C° 0 mm 2 m/S 652 mmHg 46%
    05:00 +8°C° 0 mm 2 m/S 652 mmHg 47%
    06:00 +9°C° 0 mm 2 m/S 653 mmHg 45%
    07:00 +9°C° 0 mm 2 m/S 653 mmHg 44%
    08:00 +10°C° 0 mm 2 m/S 654 mmHg 43%
    09:00 +13°C° 0 mm 3 m/S 654 mmHg 40%
    10:00 +15°C° 0 mm 4 m/S 655 mmHg 37%
    11:00 +19°C° 0 mm 5 m/S 656 mmHg 34%
    12:00 +20°C° 0 mm 5 m/S 655 mmHg 31%
    13:00 +21°C° 0 mm 5 m/S 654 mmHg 28%
    14:00 +22°C° 0 mm 5 m/S 654 mmHg 25%
    15:00 +22°C° 0 mm 4 m/S 654 mmHg 26%
    16:00 +21°C° 0 mm 4 m/S 653 mmHg 27%
    17:00 +20°C° 0 mm 3 m/S 653 mmHg 28%
    18:00 +18°C° 0 mm 3 m/S 653 mmHg 33%
    19:00 +16°C° 0 mm 3 m/S 653 mmHg 38%
    20:00 +13°C° 0 mm 3 m/S 652 mmHg 43%
    21:00 +13°C° 0 mm 2 m/S 652 mmHg 46%
    22:00 +12°C° 0 mm 2 m/S 652 mmHg 49%
    23:00 +12°C° 0 mm 2 m/S 652 mmHg 52%

    10 Juni, Mittwoch

    Zeit Temperatur Niederschläge Wind Luftdruck Luftfeuchtigkeit
    00:00 +10°C° 0 mm 2 m/S 652 mmHg 54%
    01:00 +10°C° 0 mm 2 m/S 652 mmHg 55%
    02:00 +10°C° 0 mm 2 m/S 652 mmHg 56%
    03:00 +9°C° 0 mm 2 m/S 652 mmHg 59%
    04:00 +9°C° 0 mm 3 m/S 651 mmHg 62%
    05:00 +9°C° 0 mm 3 m/S 651 mmHg 65%
    06:00 +9°C° 0 mm 3 m/S 651 mmHg 65%
    07:00 +9°C° 0 mm 3 m/S 652 mmHg 64%
    08:00 +10°C° 0 mm 3 m/S 652 mmHg 64%
    09:00 +12°C° 0 mm 4 m/S 653 mmHg 56%
    10:00 +15°C° 0 mm 5 m/S 653 mmHg 48%
    11:00 +19°C° 0 mm 5 m/S 654 mmHg 40%
    12:00 +21°C° 0 mm 5 m/S 653 mmHg 35%
    13:00 +22°C° 0 mm 5 m/S 653 mmHg 30%
    14:00 +23°C° 0 mm 5 m/S 652 mmHg 24%
    15:00 +23°C° 0 mm 4 m/S 652 mmHg 24%
    16:00 +22°C° 0 mm 4 m/S 651 mmHg 25%
    17:00 +21°C° 0 mm 3 m/S 651 mmHg 25%
    18:00 +19°C° 0 mm 3 m/S 651 mmHg 28%
    19:00 +17°C° 0 mm 3 m/S 650 mmHg 32%
    20:00 +14°C° 0 mm 3 m/S 650 mmHg 35%
    21:00 +14°C° 0 mm 3 m/S 650 mmHg 36%
    22:00 +14°C° 0 mm 3 m/S 650 mmHg 37%
    23:00 +13°C° 0 mm 3 m/S 650 mmHg 37%

    11 Juni, Donnerstag

    Zeit Temperatur Niederschläge Wind Luftdruck Luftfeuchtigkeit
    00:00 +13°C° 0 mm 4 m/S 649 mmHg 38%
    01:00 +13°C° 0 mm 4 m/S 649 mmHg 38%
    02:00 +13°C° 0 mm 5 m/S 649 mmHg 39%
    03:00 +12°C° 0 mm 4 m/S 649 mmHg 41%
    04:00 +11°C° 0 mm 4 m/S 649 mmHg 44%
    05:00 +10°C° 0 mm 3 m/S 649 mmHg 47%
    06:00 +8°C° 0 mm 4 m/S 649 mmHg 44%
    07:00 +8°C° 0 mm 4 m/S 650 mmHg 41%
    08:00 +8°C° 0 mm 4 m/S 650 mmHg 38%
    09:00 +11°C° 0 mm 4 m/S 651 mmHg 35%
    10:00 +14°C° 0 mm 4 m/S 651 mmHg 32%
    11:00 +17°C° 0 mm 4 m/S 652 mmHg 30%
    12:00 +18°C° 0 mm 4 m/S 652 mmHg 27%
    13:00 +19°C° 0 mm 4 m/S 651 mmHg 25%
    14:00 +20°C° 0 mm 4 m/S 651 mmHg 22%
    15:00 +19°C° 0 mm 4 m/S 651 mmHg 23%
    16:00 +19°C° 0 mm 4 m/S 650 mmHg 24%
    17:00 +18°C° 0 mm 4 m/S 650 mmHg 25%
    18:00 +14°C° 0 mm 4 m/S 650 mmHg 29%
    19:00 +12°C° 0 mm 4 m/S 650 mmHg 34%
    20:00 +10°C° 0 mm 3 m/S 650 mmHg 38%
    21:00 +9°C° 0 mm 3 m/S 650 mmHg 39%
    22:00 +8°C° 0 mm 3 m/S 650 mmHg 40%
    23:00 +8°C° 0 mm 3 m/S 650 mmHg 41%
    Mehr zeigen